Wind_Speed
11 12 12 11 10 9 10 10 9 9 9 9 10 10 11 12 13 13 14 14 14 15 15 15 15 15 15 16 16 17 17 18 18 19 20 20 21 22 22 22 22 22 22 22 22 22 23 24 25 24 22 23 23 22 23 22 22 21 20 20 20 21 21 20 19 18 18 17 17 18 18 17 16 16 16 16 16 17 18 17 16 16 16 17 17
14 13 12 12 11 11 10 10 10 10 10 11 11 11 12 13 14 14 15 15 15 15 16 16 16 17 17 17 18 18 19 19 20 20 20 21 22 22 23 23 23 23 23 23 23 23 24 25 27 25 23 24 23 21 22 22 21 21 21 21 20 21 21 21 20 19 19 19 18 18 18 18 17 17 17 16 16 17 18 17 17 16 16 16 17
16 14 12 13 13 12 11 12 12 11 12 12 13 13 14 14 15 16 16 16 16 16 16 16 16 17 18 18 19 19 19 19 20 20 21 21 22 22 23 23 23 24 24 24 24 24 24 24 26 25 24 25 24 23 22 21 21 20 21 21 21 21 21 21 20 19 19 19 19 19 19 18 18 17 17 17 16 17 18 18 17 16 16 16 16
16 15 13 13 13 12 13 13 13 12 13 14 14 15 16 16 17 17 17 16 16 17 17 16 17 17 17 17 18 19 19 20 20 21 21 22 22 23 24 24 24 24 24 25 25 24 24 23 24 25 26 25 25 25 24 22 21 21 21 21 20 20 21 20 20 20 19 19 19 20 20 19 19 18 18 17 17 17 17 18 17 17 16 15 14
16 16 15 13 11 12 13 14 13 13 14 15 15 16 16 17 17 17 17 17 16 17 17 17 17 17 18 18 19 20 20 21 21 22 22 22 23 24 24 24 24 25 24 24 24 24 24 24 24 25 27 26 25 25 24 23 22 22 23 23 21 21 21 20 20 21 21 20 20 20 20 20 20 19 18 18 17 17 17 18 17 17 16 15 13
16 16 15 13 13 14 15 16 16 14 15 15 16 16 16 16 16 16 17 17 17 17 17 17 17 18 19 19 20 21 22 22 23 23 23 23 24 24 24 25 25 25 25 24 24 24 24 24 24 25 27 28 27 25 25 26 25 24 24 24 24 23 22 21 21 21 21 21 20 20 20 20 21 20 19 19 18 17 18 17 17 17 16 15 13
16 16 16 16 17 18 18 19 17 15 15 16 16 17 16 16 16 17 17 18 18 18 17 17 18 19 19 20 21 22 23 23 23 24 24 24 25 25 25 25 25 25 25 25 24 24 24 24 24 25 27 29 29 27 26 26 26 26 26 25 25 24 24 23 22 22 22 22 21 21 20 20 21 21 20 19 19 18 18 18 17 17 16 15 14
17 18 18 19 20 20 18 17 16 15 15 16 16 16 16 16 17 18 18 19 19 19 18 19 19 20 21 22 23 24 24 25 25 25 25 25 25 25 24 24 24 24 24 24 23 24 24 24 24 25 27 28 29 29 27 26 26 25 25 25 25 24 25 25 24 24 24 23 22 21 21 20 20 21 21 20 19 19 18 18 17 17 17 16 15
18 20 21 21 20 18 16 15 15 15 15 15 16 16 16 17 18 19 19 20 20 20 20 21 21 22 23 24 25 26 27 28 28 27 27 27 26 26 25 24 23 23 23 23 23 23 24 24 24 25 26 27 28 29 29 28 28 27 26 25 26 25 25 25 24 24 25 25 23 22 22 21 19 20 22 21 20 19 19 19 18 17 17 17 16
18 21 20 18 16 15 14 14 15 15 15 16 16 16 16 17 19 20 20 20 21 21 21 22 22 23 25 26 27 28 29 29 29 28 28 28 28 27 26 25 25 24 23 23 23 23 23 24 24 25 26 26 27 29 30 29 29 29 28 26 26 25 26 26 25 24 25 24 24 24 23 22 21 19 21 22 21 20 20 20 19 18 18 18 17
18 18 16 13 12 13 14 14 15 15 16 16 17 16 17 18 20 20 21 21 22 22 22 22 23 24 25 27 29 29 30 30 29 29 29 29 29 28 27 27 26 25 25 25 24 24 24 24 25 25 26 26 27 28 30 30 29 30 29 28 26 24 26 28 27 26 26 24 24 24 23 24 23 20 20 21 22 22 21 20 20 19 19 19 19
15 14 12 11 13 13 13 14 14 15 16 17 18 18 18 19 20 21 22 22 22 22 23 23 24 25 27 29 30 31 31 31 30 29 29 30 29 29 29 28 28 27 27 26 26 25 25 25 25 26 27 27 28 28 30 30 30 30 31 30 29 26 26 28 29 28 27 27 25 24 23 23 23 22 21 21 22 23 23 22 21 20 19 20 20
12 11 11 13 14 13 13 13 14 16 17 18 19 19 19 20 21 22 22 22 22 22 23 24 26 28 29 30 31 32 32 31 30 29 29 29 30 30 30 29 29 29 29 28 27 27 26 26 26 27 28 29 30 30 30 30 31 31 31 32 31 30 28 28 30 29 28 28 28 26 25 24 23 23 23 23 23 23 25 24 23 22 20 20 21
12 12 13 14 14 13 13 14 15 17 18 19 19 20 20 21 22 22 22 22 22 23 24 26 28 30 32 32 32 32 32 32 31 30 30 30 30 30 31 31 31 31 30 30 29 28 27 27 28 28 29 30 31 31 32 32 31 32 32 33 33 33 31 30 30 30 29 29 29 28 28 26 25 24 23 24 25 24 25 25 24 23 22 21 22
13 14 15 14 13 13 14 15 17 18 19 20 20 20 21 22 22 22 22 22 22 24 26 29 30 32 33 34 34 33 33 33 32 31 31 32 31 31 32 32 32 32 31 31 31 30 29 29 29 29 30 31 32 33 34 34 33 33 33 34 35 35 35 33 33 32 30 30 30 29 29 29 27 25 25 25 26 26 25 25 25 25 24 22 23
14 15 14 13 13 14 16 17 18 19 20 20 20 22 23 23 23 22 22 23 24 26 29 31 32 34 34 34 34 33 33 34 34 33 33 34 34 33 33 33 33 33 33 33 32 31 30 30 30 30 31 32 33 33 34 35 36 35 35 35 35 36 37 36 35 35 33 32 31 30 29 30 29 27 26 25 25 25 25 25 26 26 26 24 24
13 14 13 12 13 15 17 18 19 19 20 20 22 23 24 24 23 23 24 25 27 29 31 32 34 34 35 34 33 32 32 32 33 33 34 35 36 36 35 34 34 34 34 34 33 33 31 31 30 31 31 32 33 34 34 35 36 37 37 37 36 36 37 38 38 37 36 35 33 31 30 30 30 29 28 26 25 25 26 27 27 27 28 27 25
13 13 13 13 15 16 17 18 19 20 21 22 23 24 24 24 24 25 27 28 30 31 32 33 34 34 34 33 33 32 32 32 32 33 34 35 36 36 35 35 35 34 34 35 34 34 33 32 32 31 32 32 33 33 34 35 36 37 38 38 38 38 38 39 39 39 38 37 36 34 32 31 30 31 30 29 27 25 25 27 28 28 29 30 28
13 13 13 14 16 17 18 19 20 21 22 23 24 24 24 25 26 27 29 30 32 33 34 34 34 34 33 33 32 32 32 32 33 33 34 35 35 35 35 34 34 34 34 35 35 35 35 35 34 33 33 33 34 34 35 35 36 37 38 38 39 39 39 39 39 40 40 39 38 36 35 34 31 31 31 30 29 27 26 27 28 28 29 31 31
13 13 14 15 17 18 19 20 21 22 23 23 24 24 25 26 28 29 31 32 33 34 34 34 34 34 33 33 33 33 33 33 34 34 33 34 34 35 35 35 34 34 34 35 35 36 37 37 37 36 36 35 35 36 36 36 37 37 38 39 39 39 39 39 39 40 40 41 40 38 37 36 34 33 32 31 29 27 28 30 29 29 29 30 32
14 15 15 16 17 19 20 21 22 22 23 24 25 25 27 28 29 31 32 33 34 34 34 35 35 34 34 34 34 34 34 34 34 34 34 33 34 34 35 36 36 36 35 36 36 37 37 38 39 39 39 38 38 38 38 38 38 38 39 40 41 41 41 40 40 40 41 41 41 41 39 38 36 35 33 32 31 29 30 32 31 30 30 29 32
15 15 15 17 18 20 21 21 22 23 24 25 26 27 29 30 31 32 33 34 34 35 35 35 35 34 34 34 35 35 35 35 35 35 35 35 35 35 36 36 37 38 38 39 40 40 40 40 41 41 41 41 41 40 40 39 39 40 40 41 42 42 43 42 41 41 41 41 42 42 41 40 38 37 35 35 34 32 32 33 33 32 30 29 32
14 15 16 17 18 20 20 21 22 23 25 26 28 29 31 32 32 33 34 34 35 35 34 34 34 34 34 34 35 35 35 35 35 35 35 36 37 38 39 39 39 40 40 41 42 42 42 43 43 44 44 44 44 43 42 42 41 41 41 41 42 43 44 44 44 43 43 43 42 42 42 42 40 39 38 37 36 36 34 33 33 33 31 31 32
14 15 16 17 18 20 21 22 24 25 27 29 30 31 32 32 33 34 34 34 34 34 34 34 34 34 34 34 34 33 33 33 34 34 35 37 38 39 40 41 41 41 42 42 43 43 43 43 43 44 45 45 46 45 45 44 44 43 43 43 43 43 44 45 45 45 44 44 44 44 43 43 43 41 40 39 38 37 37 35 34 34 33 32 32
14 15 16 18 19 20 22 24 26 27 29 30 31 32 33 34 34 34 35 34 34 34 34 34 34 34 33 33 33 32 33 33 33 34 36 37 39 40 41 42 42 43 43 43 44 44 45 45 44 44 45 45 46 46 46 46 46 45 45 44 44 44 45 46 46 46 46 45 45 45 45 44 45 44 42 41 40 39 39 38 37 36 35 34 33
14 16 17 19 21 22 24 26 28 29 30 31 32 33 34 35 35 35 35 35 35 34 34 34 33 33 33 32 32 32 33 33 34 35 36 38 39 41 42 44 44 45 45 45 45 45 46 46 46 46 46 46 46 47 47 48 48 47 47 47 46 46 46 46 47 48 48 47 46 46 46 46 46 46 44 43 43 41 41 41 39 38 37 36 35
16 17 19 21 23 25 26 28 29 30 31 32 34 35 35 35 35 35 35 35 34 34 33 33 32 32 32 32 32 32 33 34 35 36 37 38 40 41 43 44 45 46 47 47 47 47 48 49 49 49 49 48 48 48 48 49 49 49 49 49 49 49 48 47 48 48 49 49 48 47 47 47 47 47 47 45 44 43 43 42 41 40 39 37 37
17 19 21 23 24 26 27 28 30 31 33 34 35 35 36 36 35 35 35 34 33 33 32 32 32 32 32 32 32 33 33 34 35 36 37 38 40 42 43 45 46 47 48 49 49 50 50 51 51 51 52 52 51 51 51 51 51 51 51 51 51 51 50 50 49 49 50 50 51 50 48 48 49 48 48 48 47 46 44 44 43 42 41 39 39
19 21 23 24 25 27 28 29 31 33 34 35 35 36 36 35 35 34 34 33 33 32 32 32 31 31 32 32 33 34 34 35 36 37 38 40 42 44 45 47 48 49 51 51 52 52 52 53 53 53 53 53 53 53 52 52 52 52 52 52 52 52 52 52 52 51 51 52 52 52 51 50 50 50 50 49 49 48 47 46 45 44 43 42 41
20 22 24 25 27 28 29 31 32 34 35 35 35 35 35 34 34 34 33 33 32 32 32 31 31 32 33 33 34 34 35 37 38 39 41 43 45 47 48 50 51 52 53 54 55 55 54 54 55 55 54 53 54 53 53 53 53 52 52 52 53 53 53 53 54 54 54 53 54 54 54 52 51 51 51 51 51 50 50 48 47 46 46 45 44
21 23 25 26 28 29 30 32 33 35 35 35 35 35 34 34 34 33 33 33 32 31 31 31 32 33 33 34 35 36 37 39 40 42 44 46 48 50 51 52 53 54 55 56 56 57 57 56 55 55 55 53 53 52 52 52 52 52 52 52 52 52 53 54 55 55 56 56 55 56 56 56 54 53 53 53 52 52 52 51 49 48 48 48 47
22 24 26 27 28 29 31 33 34 35 35 35 35 34 34 34 33 33 33 32 31 31 31 32 33 34 34 35 36 37 39 41 43 45 47 49 51 53 54 55 55 56 57 57 57 56 56 56 55 54 53 52 52 51 50 50 50 51 52 52 52 52 52 53 54 55 57 57 57 57 58 58 57 56 55 55 54 54 54 53 52 50 50 49 49
23 25 27 28 29 30 32 33 35 35 35 35 34 34 34 33 33 33 32 31 31 31 32 33 34 34 35 36 38 40 42 43 45 47 49 51 53 54 55 56 57 57 57 57 56 54 53 53 52 51 51 51 51 51 50 49 49 50 51 52 53 53 53 53 53 55 56 58 58 59 59 59 59 59 58 57 56 55 55 55 54 53 52 51 51
24 26 28 29 29 31 32 34 35 35 35 35 34 34 33 33 32 32 31 31 31 32 33 34 34 35 36 38 40 42 44 45 47 49 51 53 54 55 56 56 56 56 56 54 53 51 49 49 49 49 50 51 51 52 52 51 51 50 51 51 52 53 54 54 53 54 56 57 59 60 60 60 60 60 60 60 59 58 57 57 57 55 54 53 53
26 28 29 29 30 31 33 34 35 35 35 35 34 34 33 32 32 31 31 31 32 33 34 34 35 36 38 40 42 44 45 47 48 51 52 54 55 55 55 55 54 53 52 51 50 49 48 48 48 49 50 50 51 52 52 52 52 51 50 51 51 52 54 54 54 55 56 57 59 60 61 62 62 61 61 61 61 61 59 59 59 58 57 56 55
27 29 30 30 31 32 33 34 35 35 35 35 34 34 33 32 31 31 31 32 32 33 34 35 36 37 39 41 43 45 46 47 49 51 53 54 54 54 53 52 51 50 49 48 48 48 48 48 48 50 50 51 52 53 53 53 53 53 52 51 50 51 51 52 53 54 55 57 59 61 62 63 63 63 63 62 62 62 62 61 61 60 59 58 57
29 30 31 31 32 33 34 34 35 35 34 34 34 33 32 31 31 31 31 32 33 34 34 35 36 38 41 43 44 45 47 48 50 52 53 53 53 52 51 49 48 47 47 46 47 47 48 49 50 51 52 53 54 55 55 54 53 53 52 51 51 50 50 51 52 54 55 56 58 61 62 63 64 64 64 64 63 63 63 63 63 62 62 60 59
30 31 32 32 33 33 34 35 35 34 34 34 33 33 32 31 31 31 32 32 33 34 34 35 37 40 42 44 45 46 47 49 51 52 52 51 50 49 47 46 45 45 45 45 46 47 49 50 51 52 53 53 53 54 54 54 54 53 52 50 49 47 47 46 45 47 51 54 57 60 62 63 64 65 65 65 65 65 65 65 65 64 64 63 62
31 32 33 33 33 34 35 35 34 34 34 34 33 32 31 31 31 31 32 32 33 34 35 36 39 41 43 44 45 46 48 50 51 51 50 49 47 46 45 44 43 43 43 44 46 48 49 50 51 52 52 52 52 53 53 54 53 51 48 43 36 31 31 33 34 37 42 48 53 58 61 63 64 65 66 66 66 66 66 66 66 66 66 65 64
32 33 34 34 34 34 35 35 34 34 34 34 33 32 31 30 30 31 32 33 33 34 35 38 40 42 43 44 46 47 49 50 50 49 48 46 45 43 42 41 41 41 43 44 46 47 48 50 50 50 50 50 52 53 52 49 43 37 33 29 24 21 24 29 34 38 41 44 48 53 57 61 64 65 66 67 66 67 67 67 67 67 67 68 67
34 34 34 34 34 34 35 35 34 34 34 34 33 31 30 30 30 31 32 32 33 34 36 39 42 43 44 45 47 48 49 49 49 48 47 45 43 41 39 39 40 41 43 44 46 47 48 49 49 49 49 50 52 52 47 39 31 25 24 25 26 26 27 30 35 41 44 42 42 43 47 51 56 60 64 67 68 68 68 68 68 68 68 69 69
35 35 34 33 34 35 35 35 34 34 34 33 32 31 30 30 31 32 32 32 33 35 38 41 43 44 45 46 47 48 48 48 47 47 45 42 40 38 38 38 39 41 42 44 46 47 48 49 49 49 49 51 53 51 41 30 25 25 27 27 27 27 30 32 35 39 44 45 41 38 40 43 45 47 52 60 65 68 69 69 69 69 69 69 70
35 34 33 33 34 35 35 35 35 35 34 33 31 30 30 31 32 32 32 32 33 36 39 42 43 44 44 45 46 46 46 46 45 44 41 39 37 36 37 38 39 41 43 44 46 47 49 50 51 51 51 52 54 49 37 27 26 28 28 27 27 28 32 36 37 35 38 42 42 37 37 40 41 39 41 47 54 61 67 69 70 70 70 69 70
35 34 32 33 34 35 35 35 35 35 34 33 31 30 31 32 32 33 33 33 34 37 40 42 43 43 44 44 44 44 43 43 42 40 37 35 34 35 36 37 39 42 44 46 48 49 51 52 53 53 53 54 55 49 36 27 26 28 27 26 29 32 36 41 41 36 32 35 38 37 36 40 42 40 38 41 45 50 59 66 70 71 71 71 70
35 33 32 32 34 34 35 35 35 35 34 33 32 31 31 32 33 34 34 34 36 38 41 42 42 42 42 42 42 42 41 40 38 35 33 32 33 34 35 37 40 42 45 47 50 52 53 54 54 55 56 57 57 52 39 28 26 27 26 27 31 35 39 44 44 40 37 37 37 34 34 38 41 42 43 43 42 43 49 59 66 71 72 72 71
33 32 31 32 33 34 34 35 36 35 34 33 32 31 32 33 34 34 35 35 37 39 41 41 41 41 41 41 40 39 38 37 34 32 30 31 32 33 35 37 40 42 45 47 50 52 53 55 56 56 57 58 58 55 45 33 28 28 28 30 34 37 41 45 46 45 44 44 39 31 30 33 35 39 44 46 45 43 44 50 59 67 72 73 73
32 31 31 32 33 33 34 35 36 36 35 34 33 32 32 33 35 35 36 37 38 39 40 40 40 40 40 39 38 37 35 33 30 28 28 29 30 32 34 37 40 42 45 47 49 51 53 55 56 57 58 59 59 57 51 40 33 32 32 34 36 38 41 44 45 43 42 41 38 33 30 32 33 34 39 45 47 47 47 47 51 60 69 73 74
31 31 31 32 33 33 34 35 36 36 35 34 33 32 32 33 34 36 37 38 38 38 38 39 39 38 38 37 36 34 32 30 27 26 27 28 29 31 34 37 40 42 45 47 49 51 53 54 56 57 58 59 58 58 55 46 38 34 34 35 35 38 42 44 41 38 37 36 36 34 32 31 31 31 36 42 46 47 50 50 49 53 63 71 75
30 30 31 32 33 33 34 35 35 36 36 34 32 32 32 33 34 36 38 38 37 37 37 37 37 36 36 35 33 31 29 27 25 25 26 27 28 30 33 36 39 41 44 46 48 50 52 54 55 57 58 58 57 57 56 50 42 36 33 34 35 38 43 43 37 33 35 37 37 36 34 34 34 31 30 37 45 49 51 53 52 51 56 66 74
30 30 31 32 32 33 35 35 35 36 36 33 32 32 32 33 35 36 37 36 35 35 35 36 35 35 34 32 30 29 27 24 23 24 25 26 27 30 32 35 37 40 42 44 46 49 51 52 54 55 56 56 56 56 56 53 48 41 36 35 37 40 44 41 33 30 34 38 40 40 39 39 40 37 30 28 36 48 54 55 55 53 53 60 70
30 31 32 32 32 34 35 35 35 36 36 33 32 32 32 34 35 35 34 33 33 33 34 34 34 33 31 29 28 27 25 23 23 24 25 25 27 29 31 34 37 39 42 44 46 48 49 51 52 53 54 56 56 56 56 55 53 47 42 39 39 43 46 41 32 32 35 36 39 42 42 40 38 36 33 28 26 38 52 56 56 55 52 54 63
Wind_Direction
307 314 314 309 306 305 302 302 303 306 308 312 319 325 326 326 326 326 326 326 326 326 326 325 325 325 324 323 324 325 324 324 324 323 322 321 319 318 316 315 314 314 315 314 315 315 312 311 308 308 315 313 308 309 307 306 305 305 304 301 299 298 296 295 294 289 281 277 275 273 273 274 275 274 271 269 269 271 277 283 284 279 275 274 275
303 307 306 303 302 298 294 294 297 303 306 311 317 320 321 322 321 321 321 320 320 319 320 321 321 322 322 323 325 325 324 323 322 320 317 316 314 312 311 309 309 309 310 309 310 311 312 314 312 314 318 311 306 307 305 302 302 302 302 300 298 296 294 292 292 291 286 279 276 275 274 274 274 274 272 269 268 270 275 282 283 278 275 275 276
298 300 300 300 297 290 290 295 301 307 307 311 316 317 318 318 318 317 316 315 315 316 318 319 320 321 322 323 323 322 320 319 316 314 312 311 310 308 306 305 306 306 306 306 306 308 310 312 313 314 311 304 304 305 303 302 300 298 298 297 297 296 293 291 290 291 289 283 278 275 274 274 273 272 272 269 267 268 273 280 281 277 275 276 274
294 294 297 300 294 288 294 300 304 307 306 309 313 314 316 316 315 313 312 313 314 316 317 318 318 319 319 318 317 316 316 315 313 311 309 309 307 306 305 305 306 304 304 304 305 306 307 307 310 308 304 304 306 305 302 300 298 296 295 294 294 294 292 290 290 289 289 287 282 276 273 273 272 270 270 269 267 267 271 277 280 276 274 274 270
287 288 293 297 294 293 298 300 302 302 300 303 308 309 310 310 309 308 309 311 313 313 314 316 316 317 317 317 316 316 316 314 313 311 310 309 308 307 307 306 305 304 303 302 303 302 302 304 305 303 303 305 306 305 303 302 302 301 299 296 293 293 295 293 290 288 287 285 284 280 274 271 270 269 268 267 266 265 267 274 278 275 272 269 264
282 284 286 288 292 296 296 294 293 293 294 298 301 302 302 302 303 305 308 309 310 310 312 314 316 317 318 317 318 317 317 316 315 314 314 312 311 309 308 307 305 303 302 301 301 301 300 301 301 300 301 301 302 307 307 307 307 304 302 301 298 298 300 297 292 290 288 285 284 283 279 274 269 267 266 266 264 263 264 269 275 274 268 263 257
278 280 280 282 287 291 289 286 284 283 287 292 294 295 297 299 302 306 307 307 307 309 312 314 316 317 317 317 317 317 317 316 316 316 315 314 312 311 310 308 307 305 303 302 302 302 301 300 298 296 295 295 299 303 303 303 304 301 299 299 298 298 297 296 295 293 291 289 286 285 285 280 273 268 266 265 264 262 262 265 271 271 265 257 251
277 278 279 280 283 283 280 277 276 279 283 286 289 292 296 300 304 306 306 306 308 311 314 316 318 318 318 318 318 317 317 317 317 316 316 315 314 313 312 310 308 306 305 304 304 302 301 299 297 294 292 294 296 297 297 297 297 295 295 295 296 295 295 297 296 293 291 290 287 285 286 284 278 272 268 265 264 262 260 261 266 268 262 253 246
279 280 280 281 280 275 270 271 274 277 281 285 289 292 298 304 305 305 305 307 311 315 318 319 320 320 320 319 319 318 318 317 317 316 316 316 315 314 312 311 309 307 306 305 304 303 301 300 297 294 293 294 294 294 294 294 294 296 297 298 297 293 292 294 295 292 290 290 287 284 283 282 279 274 269 265 264 262 259 258 261 264 260 251 243
276 278 279 277 271 267 266 270 274 277 283 286 290 295 302 305 304 305 307 311 314 317 319 320 320 320 318 317 317 317 317 316 316 317 317 316 315 314 313 311 310 308 307 306 305 303 302 301 299 296 294 294 293 292 292 291 292 295 297 296 294 293 292 290 290 290 290 291 288 284 281 280 277 272 270 267 263 261 259 257 257 259 257 249 242
272 274 270 262 261 265 268 272 277 282 287 289 294 300 305 305 305 307 311 313 316 317 318 317 316 316 316 315 316 316 315 315 316 316 317 316 315 314 313 312 310 309 308 307 305 304 302 301 299 298 296 294 293 291 290 290 289 290 291 291 290 291 291 290 289 286 288 291 289 286 282 280 277 272 272 270 266 262 258 255 253 254 254 248 241
272 268 261 263 270 273 273 277 282 286 289 293 299 304 306 305 306 309 311 313 314 314 314 314 313 313 315 315 315 316 316 316 317 317 316 315 315 314 313 312 310 309 308 307 305 303 302 300 298 297 296 294 292 290 289 289 288 287 287 287 286 284 285 287 287 285 286 286 287 289 287 282 278 272 269 269 268 265 260 255 251 250 250 246 239
264 258 263 272 275 274 277 282 286 289 292 297 302 305 305 304 305 307 308 310 310 310 311 312 312 313 315 315 315 316 316 316 316 316 315 314 314 313 313 312 311 309 308 306 304 303 301 299 297 295 294 293 291 289 288 287 287 286 284 284 283 282 281 282 283 283 283 281 281 285 287 286 281 274 268 266 267 267 262 257 252 249 246 244 239
256 260 269 273 272 276 282 286 289 292 295 299 302 303 301 301 302 303 304 305 306 307 309 311 313 314 315 315 315 315 315 315 315 315 314 313 312 312 312 311 310 309 307 306 304 303 301 298 296 293 291 290 289 288 287 286 285 285 284 282 281 280 279 278 278 279 280 279 279 279 281 283 283 278 272 267 266 267 264 259 255 251 246 243 238
268 275 276 274 276 282 285 287 289 291 294 298 299 299 297 298 299 300 301 302 304 307 309 312 313 314 315 315 316 316 315 315 315 315 313 312 311 311 311 310 309 308 307 305 304 303 301 298 295 292 290 288 287 287 286 286 285 283 283 282 281 280 279 277 275 275 276 277 277 277 278 279 280 279 277 271 267 266 266 262 258 254 249 244 238
277 277 273 273 277 282 284 286 288 290 293 295 296 295 296 297 299 301 301 303 305 308 310 312 312 313 314 315 315 315 314 314 314 314 313 312 311 310 311 310 309 308 306 305 303 302 300 298 295 293 290 288 287 286 285 285 284 283 282 281 280 280 279 278 275 274 274 274 274 275 275 275 275 276 276 275 270 266 263 261 259 255 250 246 240
265 263 264 269 272 276 279 282 285 288 291 293 294 295 297 299 301 302 303 305 307 309 310 310 311 311 312 312 312 313 312 312 313 313 312 311 310 311 311 310 309 308 306 305 303 301 300 298 296 294 291 289 287 285 284 283 283 283 282 280 279 278 278 278 277 275 274 272 272 271 270 271 273 273 272 272 272 267 262 260 259 256 250 246 241
252 256 262 267 270 273 277 281 285 290 293 294 295 296 298 300 301 303 305 307 307 308 308 308 308 308 309 310 311 312 312 312 311 311 310 310 310 310 310 309 308 307 306 304 303 301 300 298 296 294 292 290 288 286 284 283 282 282 281 281 280 279 278 277 277 276 275 272 270 269 268 267 269 272 272 271 270 269 265 262 260 257 250 245 242
250 256 263 268 273 277 281 286 289 293 294 295 296 297 299 301 304 305 306 305 305 305 305 306 307 308 310 311 312 313 312 311 310 310 309 309 308 308 308 307 307 306 305 304 302 302 301 299 298 295 293 292 290 288 285 283 282 281 280 280 279 278 277 276 276 275 275 273 271 268 267 266 266 268 270 269 268 268 269 264 260 258 253 245 241
258 264 269 273 278 283 287 291 293 294 295 296 298 300 302 303 304 304 303 303 303 304 305 307 309 310 312 313 312 312 311 311 310 309 309 308 308 308 308 307 307 306 304 303 302 301 301 300 299 298 296 293 291 289 287 285 282 281 280 279 278 277 276 275 274 274 273 273 272 269 267 265 264 263 265 265 264 263 264 263 260 258 255 248 242
266 270 275 279 283 287 290 292 294 295 297 299 300 302 303 302 302 301 301 302 303 305 307 309 310 311 312 312 312 312 311 311 310 310 310 309 309 309 309 310 310 309 308 306 304 303 301 300 300 299 297 295 293 290 288 286 284 282 280 279 277 276 275 274 273 272 272 271 272 270 268 265 263 260 260 260 260 256 256 259 259 257 255 250 243
270 274 279 284 286 289 291 293 296 298 299 301 301 301 301 301 301 301 302 303 305 306 308 309 310 311 311 311 312 312 312 312 312 312 313 313 313 313 313 312 312 311 310 309 308 306 304 303 301 300 298 296 294 292 289 287 284 282 280 278 277 276 275 274 273 271 271 270 270 270 269 266 263 260 257 256 257 256 255 255 256 256 254 250 243
274 279 282 286 288 291 294 297 299 300 300 300 300 300 301 301 301 302 303 304 305 307 308 309 309 310 310 311 311 312 312 313 314 315 316 316 316 315 314 313 312 311 310 308 307 305 304 303 302 300 299 297 295 293 291 288 285 283 280 278 277 276 275 274 273 271 270 269 268 268 268 266 264 260 257 255 254 255 255 253 252 254 252 249 245
277 281 285 290 293 296 298 299 300 300 300 301 301 301 301 301 302 302 304 305 306 307 307 308 308 309 310 311 311 312 313 315 316 316 316 315 315 314 313 312 311 310 309 307 306 304 303 301 300 299 297 296 295 293 291 289 287 284 281 279 276 275 274 273 272 271 269 268 267 267 266 266 264 261 258 255 252 252 253 252 250 251 252 250 247
283 289 293 295 297 298 300 300 301 301 302 302 302 301 301 302 303 304 305 306 306 306 307 307 308 309 310 311 312 313 314 315 315 315 315 314 314 313 312 311 310 310 309 307 305 304 302 301 299 298 296 295 293 292 291 289 287 285 283 280 277 275 273 272 271 270 269 267 265 265 265 264 264 262 259 256 253 250 250 251 250 250 250 249 247
293 296 297 298 299 301 302 303 303 303 303 303 303 302 303 304 305 306 306 305 305 306 307 308 309 310 311 312 313 314 314 315 315 315 315 315 314 314 313 312 311 310 309 308 306 304 303 301 300 298 296 294 293 291 290 289 287 286 284 281 279 276 273 271 270 269 269 267 264 263 263 263 262 262 260 257 254 251 248 248 249 248 248 246 245
298 299 299 301 302 303 304 304 304 304 304 304 304 304 305 305 306 306 305 305 306 307 308 309 310 311 311 312 313 313 314 314 314 315 315 315 314 314 313 312 311 310 309 308 306 305 303 302 301 299 297 295 293 291 290 288 287 285 284 282 280 278 275 272 270 268 268 267 265 262 261 261 260 260 259 257 255 252 248 246 246 246 246 246 244
299 300 301 302 303 304 304 305 305 305 306 306 306 306 305 305 305 305 305 306 307 308 309 309 310 311 312 313 312 312 313 313 314 314 315 314 314 314 313 312 310 310 309 308 307 306 304 303 302 300 298 297 295 293 291 289 287 285 283 282 280 278 276 273 271 268 267 266 264 262 260 259 259 258 258 257 255 253 249 246 244 243 243 244 243
298 299 301 303 305 306 307 307 307 307 307 307 306 305 305 305 306 306 306 306 307 308 309 309 310 311 312 312 311 312 313 313 314 314 314 315 315 315 314 313 312 310 310 309 308 306 305 303 301 300 299 297 295 293 291 289 288 286 284 282 280 278 276 274 272 269 267 265 264 263 260 257 256 256 256 255 254 253 250 247 244 242 240 240 242
298 302 305 307 308 308 307 307 308 307 307 306 306 306 306 306 306 306 306 306 307 308 309 310 311 311 311 311 311 312 313 314 314 314 315 316 316 315 314 313 312 311 310 309 307 306 305 304 302 301 299 298 296 294 293 290 288 286 284 282 281 279 277 275 273 270 268 265 263 262 261 258 255 254 254 253 252 252 250 248 244 242 240 238 240
304 307 309 309 307 306 306 306 307 307 307 307 307 307 306 306 306 306 306 306 307 308 309 310 311 310 310 311 312 313 314 315 315 316 316 316 316 316 315 314 313 311 310 309 308 306 304 303 303 301 300 299 298 296 294 293 290 288 285 283 281 279 277 276 274 272 269 266 263 261 260 259 256 253 252 251 250 250 249 248 244 241 240 238 238
306 308 308 308 306 305 305 306 308 308 308 308 307 306 306 306 306 306 306 307 308 309 310 311 310 310 311 312 313 315 316 316 317 317 317 317 317 316 316 315 313 312 311 309 308 308 306 304 303 302 301 300 298 297 295 294 292 290 287 285 282 280 278 276 274 272 270 268 265 262 259 258 256 254 251 250 249 248 247 247 245 242 240 238 237
305 307 307 306 305 304 305 307 309 309 308 307 306 306 306 306 306 307 307 308 309 310 310 310 310 311 312 314 316 317 317 317 317 317 318 318 318 317 316 316 315 313 312 311 310 310 309 307 306 304 303 301 300 298 296 294 292 290 289 287 284 282 279 276 274 273 271 269 267 264 261 258 256 254 252 249 248 247 246 245 244 242 239 237 236
304 305 306 306 305 304 306 308 309 308 307 307 306 307 307 307 307 308 309 309 310 310 311 311 311 312 315 316 318 318 318 317 317 318 319 319 318 318 318 317 316 315 314 313 312 311 310 310 308 307 305 303 301 299 296 294 292 289 287 286 284 282 280 277 275 273 271 270 268 265 263 259 256 254 252 250 248 246 245 244 243 242 240 238 235
302 303 305 305 305 306 308 309 309 308 307 307 308 308 307 307 308 309 310 310 311 311 312 312 313 315 317 318 318 318 317 318 319 320 320 319 319 319 319 318 318 318 317 316 314 313 312 311 310 308 306 304 303 301 299 296 294 291 288 286 284 282 279 277 275 272 270 269 267 266 264 261 258 255 252 250 248 246 244 243 242 241 239 238 235
300 302 304 305 305 306 308 309 309 308 308 308 309 308 307 307 308 309 311 312 313 313 313 314 315 317 318 318 318 318 318 320 321 321 320 320 320 320 321 321 320 320 319 318 317 316 314 313 313 312 310 309 308 306 304 301 299 296 293 290 287 284 282 279 276 273 270 267 265 264 263 262 260 257 254 251 248 246 245 242 241 241 239 237 236
299 302 304 305 305 306 308 310 309 309 309 310 310 309 307 307 309 311 312 314 314 314 315 315 316 317 318 318 318 319 321 321 321 321 321 321 322 323 323 323 322 321 320 320 319 319 319 318 317 317 316 314 312 310 308 305 303 300 297 294 291 288 285 282 279 276 272 269 266 263 261 260 260 258 256 253 249 247 245 243 241 240 239 237 235
298 300 302 303 304 306 309 310 310 310 311 311 311 310 308 308 310 312 314 315 315 316 316 316 317 318 318 319 320 321 323 322 322 322 322 323 324 325 324 324 323 322 322 323 323 324 323 322 321 320 318 316 314 312 310 307 305 302 298 295 292 290 287 284 282 279 276 272 268 264 261 259 258 257 256 254 251 248 245 243 241 239 239 237 235
296 299 301 302 304 306 309 310 310 310 311 313 312 311 309 309 311 313 315 316 316 317 317 317 318 319 319 320 322 323 323 323 323 323 324 325 326 326 325 324 324 325 326 327 327 326 325 323 323 322 321 319 317 315 313 310 308 305 301 298 297 297 295 294 291 288 282 277 272 267 263 260 257 255 254 253 252 250 246 243 241 239 238 237 235
294 297 300 301 303 306 308 310 310 311 312 314 313 311 310 311 313 315 316 317 317 317 318 319 320 320 321 322 324 324 324 324 324 324 326 327 326 326 326 327 328 330 331 330 329 328 327 327 326 325 324 323 321 320 317 313 311 309 308 310 314 314 312 308 304 298 290 283 277 274 270 265 260 256 253 251 250 249 247 244 241 238 237 236 235
293 296 298 300 302 305 308 310 310 311 313 314 313 312 312 313 315 316 317 317 317 318 319 320 321 322 323 324 325 325 324 324 325 326 327 327 327 327 329 331 333 334 333 332 332 332 331 331 330 330 329 328 327 326 321 315 313 314 317 321 321 318 316 314 311 304 298 292 288 285 281 274 268 261 256 251 248 246 246 244 242 238 236 235 234
292 295 297 299 302 305 308 309 310 312 314 314 314 314 314 316 316 317 317 316 317 319 321 322 322 323 324 325 324 324 324 325 326 327 328 328 329 331 334 336 335 334 335 336 337 336 336 336 336 335 334 334 333 330 323 315 314 316 317 317 316 316 317 317 314 307 300 299 298 293 288 282 276 270 263 257 250 245 243 242 242 239 236 233 233
291 294 295 298 301 305 307 309 310 313 315 314 314 315 317 317 317 316 316 316 317 320 322 323 323 324 324 324 324 325 326 327 329 329 329 331 334 338 338 338 338 339 341 341 341 341 342 342 341 339 339 339 338 335 325 312 310 312 312 313 315 320 321 318 317 310 301 299 300 296 290 284 280 275 269 263 256 248 243 240 239 238 236 233 231
291 292 294 297 301 305 306 308 311 314 315 315 315 316 318 318 317 316 315 316 318 320 322 323 323 323 323 324 325 326 328 330 331 331 332 336 340 340 339 340 343 345 346 346 346 347 347 346 345 343 343 343 343 340 329 312 309 312 312 315 320 324 323 320 320 317 307 301 299 294 285 278 275 276 272 265 259 252 245 239 236 236 235 232 230
290 290 292 296 301 304 305 307 311 314 316 316 316 317 318 318 318 317 316 316 317 319 321 322 322 322 323 324 326 328 331 332 332 332 336 341 341 340 342 346 349 350 350 350 351 351 350 349 348 347 346 346 347 347 338 321 313 315 317 320 324 326 325 323 324 322 315 310 305 292 279 271 267 269 271 268 262 255 248 241 236 233 232 231 228
288 288 290 295 300 302 304 307 311 314 316 316 316 317 318 319 318 317 317 316 316 318 320 320 321 322 323 325 327 330 332 333 332 335 340 342 341 342 347 350 351 352 352 352 353 353 352 352 351 350 349 350 351 351 347 335 323 321 323 324 326 329 329 327 328 327 322 318 314 301 288 281 273 266 265 266 264 259 251 244 237 233 230 229 227
285 286 289 294 298 300 302 306 311 314 315 316 317 317 317 318 317 316 316 316 316 316 318 319 320 321 323 326 329 332 333 332 333 338 341 340 341 345 350 352 354 353 353 354 354 353 353 354 354 353 352 353 353 353 352 345 335 330 328 326 330 335 335 332 332 330 325 323 322 318 308 296 283 269 263 262 261 258 254 247 239 233 229 227 226
283 285 289 293 296 298 301 306 309 312 313 315 316 316 317 317 317 315 315 315 315 315 317 318 319 321 323 327 331 333 332 332 335 339 339 339 343 348 352 354 355 354 354 355 354 354 354 355 355 355 355 355 355 355 354 350 341 334 330 330 336 341 339 336 334 331 328 329 331 332 327 314 298 279 264 259 258 256 253 249 243 235 229 226 224
282 285 288 291 294 296 300 304 308 310 312 313 316 317 317 317 316 316 315 313 313 315 316 317 318 321 326 330 332 332 331 332 335 337 337 339 344 349 352 354 354 355 355 355 354 354 355 356 356 357 357 357 356 356 356 354 348 339 334 334 339 345 343 339 337 335 333 332 333 333 330 325 317 303 279 263 256 253 251 249 245 237 230 226 223
281 284 287 289 292 295 299 303 306 308 311 312 314 316 316 316 316 315 313 311 312 314 315 316 319 324 328 331 331 330 330 332 334 334 336 340 344 348 351 352 353 354 354 354 354 354 356 356 357 358 358 358 358 357 357 357 354 348 343 341 344 349 348 344 342 342 338 334 333 332 327 320 317 311 300 281 263 253 248 247 245 239 232 226 222
281 283 285 287 290 293 298 302 305 307 310 311 313 314 315 315 315 312 310 311 313 314 314 317 322 327 330 330 329 328 328 330 332 332 335 339 342 346 348 349 350 352 352 353 354 355 356 357 357 358 358 358 359 358 358 358 358 356 351 349 351 353 352 349 348 347 344 339 337 334 329 324 321 314 306 301 285 260 248 244 242 239 234 227 223
Height
5848 5848 5847 5847 5847 5847 5846 5846 5846 5846 5845 5845 5844 5844 5843 5842 5842 5841 5840 5839 5838 5836 5835 5833 5832 5831 5830 5828 5827 5826 5825 5823 5822 5820 5819 5818 5817 5816 5815 5814 5813 5811 5810 5808 5807 5805 5802 5799 5796 5795 5795 5794 5791 5790 5789 5788 5786 5784 5782 5781 5780 5779 5778 5777 5776 5775 5774 5773 5772 5772 5771 5771 5770 5770 5770 5770 5770 5770 5770 5770 5770 5769 5769 5768 5768
5847 5847 5846 5846 5845 5845 5844 5844 5844 5844 5844 5844 5843 5843 5842 5842 5841 5840 5839 5838 5837 5836 5834 5832 5830 5829 5827 5826 5825 5823 5822 5821 5819 5818 5817 5817 5815 5815 5813 5812 5811 5810 5808 5806 5805 5803 5801 5799 5795 5793 5793 5791 5788 5788 5786 5785 5784 5782 5780 5779 5778 5777 5776 5775 5774 5773 5772 5771 5771 5770 5769 5769 5768 5768 5768 5768 5768 5768 5768 5768 5768 5767 5767 5767 5766
5847 5846 5845 5844 5844 5843 5843 5843 5842 5842 5842 5842 5842 5842 5841 5840 5840 5839 5838 5837 5836 5834 5833 5831 5829 5827 5826 5824 5823 5822 5821 5820 5818 5817 5816 5815 5814 5813 5812 5810 5809 5808 5806 5804 5803 5801 5800 5798 5795 5792 5790 5788 5786 5785 5783 5782 5781 5780 5778 5776 5775 5774 5773 5773 5772 5771 5771 5770 5769 5768 5767 5767 5767 5766 5766 5766 5766 5766 5767 5766 5766 5766 5765 5765 5765
5845 5845 5844 5843 5843 5842 5842 5841 5841 5841 5840 5840 5840 5840 5839 5838 5838 5837 5837 5836 5834 5833 5831 5829 5828 5826 5825 5823 5822 5821 5820 5819 5817 5816 5815 5814 5812 5811 5809 5808 5807 5805 5803 5802 5800 5799 5798 5797 5795 5791 5787 5785 5784 5782 5781 5780 5779 5778 5776 5774 5773 5772 5771 5770 5770 5769 5769 5768 5767 5766 5765 5765 5765 5764 5764 5764 5764 5764 5765 5765 5764 5764 5764 5763 5763
5843 5843 5843 5842 5841 5841 5840 5840 5839 5839 5839 5839 5839 5838 5838 5837 5837 5836 5835 5834 5833 5831 5830 5828 5826 5825 5823 5822 5821 5819 5818 5817 5815 5814 5813 5811 5810 5808 5807 5806 5804 5802 5801 5799 5798 5796 5795 5795 5793 5789 5785 5783 5781 5780 5779 5778 5778 5776 5774 5773 5772 5771 5769 5769 5768 5767 5767 5766 5765 5764 5763 5763 5763 5762 5762 5762 5762 5762 5763 5763 5763 5762 5762 5762 5762
5841 5841 5841 5841 5840 5839 5839 5838 5838 5838 5838 5838 5838 5837 5837 5836 5835 5835 5834 5833 5831 5830 5828 5826 5825 5823 5821 5820 5819 5817 5816 5815 5813 5812 5810 5809 5807 5806 5804 5803 5801 5800 5798 5797 5795 5794 5793 5793 5791 5788 5784 5780 5779 5779 5779 5778 5777 5775 5773 5772 5771 5769 5768 5768 5767 5766 5765 5765 5764 5763 5761 5761 5761 5760 5760 5760 5760 5760 5760 5761 5761 5761 5761 5760 5760
5839 5840 5840 5839 5839 5838 5837 5837 5836 5836 5836 5836 5836 5836 5836 5835 5834 5833 5832 5831 5830 5828 5827 5825 5823 5822 5820 5819 5817 5816 5815 5813 5812 5810 5808 5806 5805 5803 5802 5800 5799 5797 5796 5794 5793 5792 5791 5790 5788 5786 5782 5779 5777 5777 5777 5776 5774 5773 5771 5770 5769 5768 5768 5767 5766 5765 5764 5763 5763 5761 5760 5760 5759 5759 5759 5758 5758 5758 5758 5759 5759 5759 5759 5759 5759
5837 5838 5838 5838 5837 5837 5836 5835 5835 5835 5835 5835 5835 5835 5834 5833 5832 5831 5831 5829 5828 5826 5825 5823 5821 5820 5818 5817 5815 5814 5813 5811 5810 5808 5806 5804 5802 5801 5800 5798 5796 5795 5793 5792 5791 5790 5788 5787 5785 5783 5781 5778 5776 5775 5774 5773 5771 5770 5769 5767 5767 5766 5766 5765 5764 5763 5762 5761 5761 5760 5759 5758 5758 5757 5757 5756 5756 5756 5756 5757 5757 5757 5758 5757 5757
5835 5836 5836 5836 5836 5835 5834 5834 5834 5834 5834 5833 5833 5833 5832 5831 5830 5830 5829 5827 5825 5824 5822 5820 5819 5817 5815 5814 5813 5811 5810 5808 5807 5805 5803 5801 5800 5798 5797 5796 5794 5793 5791 5790 5789 5787 5786 5785 5783 5781 5778 5776 5774 5773 5772 5771 5769 5768 5767 5766 5765 5764 5763 5763 5762 5761 5760 5760 5759 5758 5757 5756 5755 5755 5755 5754 5754 5754 5754 5755 5755 5755 5756 5756 5756
5834 5834 5834 5834 5834 5834 5833 5833 5833 5832 5832 5832 5832 5831 5830 5829 5829 5828 5826 5825 5823 5821 5820 5818 5817 5815 5813 5812 5810 5809 5807 5806 5804 5802 5800 5799 5797 5795 5794 5793 5792 5790 5789 5788 5787 5785 5784 5782 5780 5778 5776 5774 5772 5770 5769 5769 5767 5766 5765 5764 5763 5762 5761 5759 5760 5759 5758 5758 5757 5756 5755 5754 5753 5753 5752 5752 5752 5752 5752 5752 5753 5753 5754 5754 5754
5831 5832 5832 5833 5833 5832 5832 5832 5831 5831 5831 5831 5830 5829 5828 5828 5827 5825 5824 5822 5821 5819 5818 5817 5815 5814 5812 5810 5808 5807 5805 5803 5801 5799 5798 5796 5794 5793 5791 5790 5789 5788 5786 5785 5784 5783 5781 5780 5777 5775 5773 5771 5770 5768 5766 5765 5764 5763 5762 5761 5760 5760 5759 5757 5757 5757 5756 5755 5754 5753 5752 5752 5751 5751 5750 5749 5749 5749 5750 5750 5750 5751 5752 5752 5753
5829 5830 5831 5831 5831 5831 5830 5830 5830 5830 5830 5829 5828 5827 5826 5826 5824 5823 5822 5821 5819 5818 5816 5815 5813 5811 5810 5808 5805 5804 5802 5800 5798 5797 5795 5793 5792 5790 5789 5787 5786 5785 5784 5782 5781 5780 5779 5777 5775 5772 5770 5768 5767 5765 5763 5761 5761 5759 5758 5757 5756 5757 5757 5755 5754 5754 5754 5752 5751 5751 5750 5750 5749 5749 5748 5748 5747 5747 5747 5748 5748 5749 5749 5750 5751
5828 5828 5829 5829 5829 5829 5829 5829 5829 5829 5828 5827 5826 5825 5824 5824 5823 5822 5821 5820 5818 5817 5815 5813 5810 5808 5807 5805 5803 5801 5799 5797 5795 5794 5793 5791 5789 5788 5786 5785 5783 5782 5781 5780 5779 5778 5776 5774 5772 5770 5768 5766 5764 5762 5760 5758 5757 5756 5754 5753 5752 5752 5753 5752 5750 5750 5751 5749 5748 5748 5748 5747 5747 5746 5746 5746 5745 5745 5745 5745 5746 5746 5747 5748 5749
5826 5826 5827 5828 5828 5827 5827 5827 5827 5826 5826 5825 5824 5823 5823 5823 5822 5821 5820 5818 5817 5815 5812 5810 5808 5806 5804 5802 5800 5798 5796 5794 5793 5791 5790 5789 5787 5785 5784 5782 5780 5779 5777 5776 5775 5774 5773 5771 5769 5767 5765 5763 5761 5759 5757 5755 5753 5752 5751 5749 5748 5748 5748 5749 5747 5746 5747 5746 5746 5746 5745 5744 5744 5743 5743 5744 5743 5743 5743 5743 5744 5744 5745 5745 5746
5824 5824 5825 5825 5825 5825 5825 5825 5825 5824 5823 5823 5823 5822 5822 5821 5821 5819 5818 5816 5814 5812 5810 5808 5806 5803 5801 5799 5797 5794 5792 5791 5790 5789 5787 5785 5784 5782 5781 5779 5777 5776 5774 5773 5771 5770 5769 5767 5765 5763 5761 5759 5758 5755 5753 5751 5750 5749 5747 5746 5744 5744 5744 5744 5743 5742 5743 5742 5742 5743 5743 5741 5741 5740 5741 5741 5741 5741 5741 5741 5742 5742 5743 5743 5744
5822 5822 5823 5824 5824 5823 5823 5824 5824 5823 5822 5822 5821 5821 5820 5819 5818 5817 5815 5813 5811 5810 5807 5805 5803 5801 5798 5796 5794 5792 5789 5787 5786 5786 5784 5782 5780 5779 5778 5776 5774 5772 5771 5769 5767 5766 5765 5763 5762 5760 5758 5756 5754 5752 5750 5748 5746 5745 5744 5742 5741 5740 5739 5739 5739 5738 5738 5738 5739 5739 5739 5738 5737 5738 5738 5739 5739 5738 5738 5739 5739 5740 5740 5741 5742
5821 5822 5823 5823 5823 5823 5823 5823 5822 5822 5821 5820 5820 5819 5818 5816 5815 5813 5812 5810 5808 5807 5805 5803 5801 5798 5796 5794 5792 5790 5788 5785 5784 5782 5780 5778 5776 5775 5774 5772 5770 5769 5767 5765 5763 5762 5761 5759 5758 5756 5754 5752 5750 5749 5747 5745 5743 5741 5739 5738 5737 5737 5735 5734 5734 5734 5734 5734 5734 5735 5735 5734 5734 5734 5735 5735 5735 5735 5736 5736 5736 5736 5737 5738 5739
5821 5821 5822 5822 5822 5822 5822 5821 5821 5820 5819 5818 5817 5816 5815 5814 5812 5810 5809 5807 5806 5804 5802 5800 5798 5796 5793 5791 5789 5787 5785 5783 5781 5779 5778 5775 5773 5771 5770 5768 5766 5765 5763 5761 5759 5757 5756 5755 5754 5752 5750 5748 5746 5745 5743 5741 5739 5737 5735 5734 5733 5732 5732 5731 5730 5729 5729 5729 5729 5730 5730 5730 5731 5730 5731 5731 5732 5732 5732 5733 5733 5733 5734 5735 5736
5820 5820 5820 5820 5820 5819 5819 5819 5818 5817 5816 5816 5815 5814 5812 5811 5809 5807 5806 5804 5803 5801 5799 5797 5795 5792 5790 5788 5786 5784 5782 5780 5778 5776 5774 5772 5770 5768 5767 5765 5763 5761 5759 5757 5755 5753 5751 5750 5749 5748 5746 5744 5742 5740 5738 5737 5735 5733 5731 5730 5729 5728 5727 5727 5726 5725 5724 5724 5724 5725 5725 5726 5727 5727 5726 5727 5728 5729 5730 5729 5730 5730 5730 5731 5733
5818 5818 5818 5818 5817 5817 5816 5816 5815 5814 5814 5813 5812 5811 5809 5808 5806 5805 5803 5801 5800 5798 5796 5794 5791 5789 5787 5784 5782 5781 5779 5777 5775 5773 5771 5769 5767 5765 5763 5761 5760 5758 5756 5753 5751 5749 5747 5745 5743 5742 5741 5739 5738 5736 5734 5732 5730 5729 5727 5725 5724 5723 5722 5722 5721 5720 5719 5719 5719 5720 5721 5721 5722 5723 5722 5723 5724 5726 5727 5727 5726 5726 5727 5728 5729
5815 5815 5815 5815 5815 5814 5814 5813 5813 5812 5811 5810 5809 5808 5806 5805 5803 5802 5800 5798 5796 5794 5792 5790 5788 5785 5783 5781 5779 5777 5775 5773 5771 5769 5767 5765 5763 5761 5759 5757 5755 5753 5751 5749 5747 5745 5743 5740 5738 5737 5735 5734 5732 5730 5729 5727 5725 5724 5722 5720 5719 5718 5717 5717 5716 5716 5715 5714 5713 5714 5715 5716 5717 5718 5719 5719 5719 5721 5723 5723 5722 5722 5723 5724 5726
5814 5814 5813 5813 5813 5812 5812 5811 5811 5810 5809 5808 5806 5805 5804 5802 5800 5798 5796 5794 5792 5790 5788 5786 5784 5782 5780 5778 5775 5773 5771 5769 5767 5765 5763 5760 5758 5757 5755 5753 5750 5748 5746 5743 5741 5739 5737 5735 5733 5731 5729 5727 5726 5724 5723 5721 5720 5718 5716 5715 5713 5712 5711 5711 5711 5710 5710 5709 5709 5708 5709 5710 5711 5712 5713 5714 5715 5716 5717 5718 5718 5718 5719 5720 5721
5812 5812 5811 5811 5811 5810 5810 5809 5808 5807 5806 5805 5803 5802 5800 5799 5797 5795 5793 5791 5789 5787 5785 5783 5781 5779 5777 5775 5772 5770 5768 5765 5763 5761 5758 5756 5754 5751 5749 5748 5746 5744 5741 5739 5736 5734 5732 5730 5727 5725 5723 5721 5719 5718 5716 5715 5714 5712 5711 5709 5708 5706 5705 5704 5704 5704 5704 5704 5704 5703 5703 5703 5704 5706 5707 5708 5710 5710 5711 5712 5713 5713 5714 5715 5717
5811 5810 5809 5809 5809 5808 5807 5807 5806 5805 5803 5802 5800 5799 5797 5795 5794 5792 5789 5787 5785 5783 5781 5779 5777 5775 5773 5771 5769 5767 5765 5762 5760 5758 5755 5753 5750 5748 5745 5743 5741 5739 5737 5735 5732 5729 5727 5725 5723 5721 5718 5715 5713 5711 5710 5708 5707 5706 5704 5703 5702 5701 5699 5698 5698 5697 5698 5698 5698 5698 5698 5697 5698 5699 5701 5702 5703 5705 5705 5706 5707 5709 5710 5711 5712
5808 5808 5807 5807 5806 5806 5805 5804 5803 5802 5800 5799 5797 5795 5794 5792 5790 5788 5786 5784 5782 5780 5778 5776 5774 5772 5770 5768 5766 5764 5762 5760 5757 5755 5753 5750 5747 5744 5741 5739 5737 5735 5733 5730 5727 5724 5722 5720 5718 5716 5713 5711 5708 5705 5703 5702 5700 5699 5697 5696 5695 5694 5693 5692 5691 5690 5691 5691 5692 5692 5692 5692 5692 5693 5694 5696 5697 5699 5700 5701 5702 5703 5704 5706 5708
5806 5806 5805 5805 5804 5803 5803 5801 5800 5799 5797 5796 5794 5792 5790 5788 5786 5784 5782 5780 5778 5776 5774 5772 5770 5768 5766 5764 5762 5760 5758 5757 5754 5752 5749 5747 5744 5740 5737 5734 5731 5729 5727 5725 5722 5719 5716 5714 5711 5710 5707 5705 5703 5700 5697 5696 5694 5692 5690 5689 5687 5687 5686 5685 5684 5684 5683 5684 5685 5685 5685 5686 5686 5686 5687 5689 5690 5692 5694 5695 5696 5697 5698 5700 5702
5804 5803 5803 5802 5802 5801 5800 5799 5797 5796 5794 5793 5791 5788 5786 5784 5783 5781 5779 5777 5774 5772 5770 5768 5766 5764 5763 5761 5759 5757 5755 5753 5751 5748 5746 5743 5740 5737 5734 5730 5727 5724 5722 5719 5717 5714 5711 5708 5704 5702 5700 5698 5696 5694 5692 5689 5687 5685 5683 5681 5679 5678 5678 5678 5677 5676 5676 5676 5677 5678 5678 5679 5679 5679 5680 5682 5683 5685 5687 5689 5690 5691 5693 5695 5697
5802 5801 5801 5800 5799 5798 5797 5796 5794 5793 5791 5789 5787 5785 5783 5781 5779 5777 5775 5773 5771 5769 5767 5765 5763 5761 5759 5758 5756 5754 5752 5750 5747 5745 5742 5739 5736 5733 5730 5727 5724 5720 5717 5714 5711 5708 5705 5702 5698 5694 5692 5691 5688 5686 5684 5682 5679 5677 5675 5673 5672 5670 5670 5669 5669 5669 5668 5668 5668 5669 5671 5672 5672 5672 5673 5674 5676 5678 5680 5682 5684 5686 5687 5689 5691
5800 5799 5799 5798 5797 5796 5794 5793 5791 5789 5788 5786 5784 5781 5779 5777 5776 5774 5772 5770 5767 5765 5763 5761 5760 5758 5756 5754 5752 5750 5748 5746 5743 5741 5738 5735 5732 5729 5726 5723 5719 5716 5712 5708 5705 5702 5698 5695 5692 5689 5685 5682 5681 5678 5676 5674 5671 5669 5667 5665 5663 5662 5661 5660 5660 5660 5660 5660 5660 5660 5662 5664 5665 5665 5666 5667 5668 5670 5673 5675 5678 5680 5681 5683 5685
5798 5797 5796 5795 5794 5793 5791 5790 5788 5786 5784 5782 5780 5778 5776 5774 5772 5770 5768 5766 5764 5762 5760 5758 5756 5755 5753 5751 5749 5747 5744 5742 5739 5736 5733 5730 5727 5724 5721 5717 5714 5710 5707 5702 5699 5696 5693 5688 5684 5681 5678 5674 5672 5670 5668 5665 5663 5661 5659 5657 5655 5653 5653 5652 5651 5651 5651 5651 5651 5651 5652 5654 5656 5657 5658 5659 5661 5662 5665 5667 5670 5673 5675 5677 5679
5795 5794 5794 5793 5791 5790 5789 5787 5786 5783 5781 5779 5777 5775 5772 5770 5769 5767 5765 5763 5761 5759 5757 5755 5753 5751 5749 5747 5745 5743 5740 5737 5734 5731 5728 5725 5722 5719 5715 5712 5708 5704 5700 5697 5692 5688 5685 5682 5678 5674 5670 5667 5664 5662 5659 5656 5654 5652 5650 5649 5647 5645 5644 5643 5642 5641 5641 5641 5641 5642 5642 5644 5646 5648 5650 5651 5653 5654 5656 5659 5662 5665 5668 5670 5672
5793 5792 5791 5790 5789 5788 5786 5785 5783 5780 5778 5776 5773 5771 5769 5767 5765 5764 5762 5759 5757 5755 5754 5752 5750 5748 5746 5743 5741 5738 5736 5733 5730 5726 5723 5720 5716 5713 5709 5705 5702 5698 5693 5690 5686 5680 5676 5674 5671 5667 5663 5660 5656 5654 5652 5649 5645 5643 5641 5639 5638 5637 5635 5634 5633 5631 5631 5630 5631 5631 5633 5634 5636 5638 5640 5643 5644 5646 5648 5650 5653 5657 5660 5663 5666
5791 5790 5789 5788 5787 5785 5783 5782 5779 5777 5775 5772 5770 5769 5766 5764 5761 5760 5758 5756 5754 5752 5751 5748 5746 5744 5742 5739 5737 5734 5731 5728 5725 5721 5718 5714 5710 5706 5703 5699 5695 5691 5687 5683 5679 5675 5669 5665 5663 5659 5655 5652 5649 5646 5644 5642 5639 5636 5633 5630 5628 5627 5626 5625 5624 5622 5621 5620 5620 5620 5622 5623 5625 5628 5630 5633 5636 5638 5640 5641 5644 5648 5652 5655 5658
5788 5787 5786 5785 5784 5782 5781 5779 5776 5774 5772 5769 5767 5765 5763 5761 5758 5756 5755 5753 5751 5749 5747 5745 5743 5740 5738 5735 5733 5730 5727 5724 5720 5716 5712 5709 5705 5700 5696 5692 5688 5684 5680 5676 5672 5669 5665 5660 5656 5653 5649 5645 5641 5638 5635 5633 5631 5629 5626 5623 5620 5618 5616 5615 5615 5614 5612 5610 5609 5609 5610 5612 5615 5617 5620 5623 5626 5629 5631 5633 5635 5639 5643 5647 5651
5786 5785 5784 5783 5781 5780 5778 5776 5773 5771 5769 5766 5764 5762 5760 5758 5755 5753 5751 5750 5748 5746 5744 5741 5739 5737 5734 5731 5728 5725 5722 5719 5715 5711 5707 5703 5699 5695 5690 5686 5682 5677 5673 5670 5666 5663 5659 5655 5651 5647 5643 5639 5634 5630 5627 5624 5621 5619 5617 5615 5612 5609 5607 5605 5605 5604 5602 5601 5599 5598 5598 5600 5603 5607 5610 5613 5616 5619 5622 5624 5626 5630 5634 5638 5642
5784 5783 5781 5780 5778 5777 5775 5773 5770 5768 5766 5763 5761 5759 5757 5754 5752 5750 5748 5746 5745 5743 5740 5738 5735 5733 5730 5727 5724 5721 5717 5714 5710 5706 5702 5698 5694 5689 5685 5680 5676 5672 5668 5664 5660 5656 5653 5649 5645 5641 5636 5632 5627 5622 5619 5616 5612 5609 5607 5605 5602 5600 5597 5595 5594 5593 5591 5590 5588 5588 5588 5589 5591 5595 5599 5602 5606 5609 5612 5615 5618 5621 5624 5629 5633
5781 5780 5778 5777 5775 5774 5772 5770 5767 5765 5762 5760 5758 5756 5754 5752 5750 5747 5745 5743 5741 5739 5737 5735 5732 5729 5726 5723 5720 5716 5713 5709 5706 5702 5698 5693 5689 5684 5680 5676 5671 5668 5664 5660 5655 5651 5647 5643 5639 5635 5630 5625 5620 5615 5610 5606 5603 5600 5597 5594 5592 5589 5588 5586 5583 5581 5580 5578 5577 5577 5578 5579 5581 5584 5587 5591 5595 5598 5602 5606 5609 5611 5615 5620 5624
5778 5777 5775 5774 5772 5771 5769 5766 5764 5762 5759 5757 5755 5753 5751 5749 5747 5744 5742 5740 5738 5736 5733 5731 5729 5726 5722 5719 5715 5712 5708 5704 5701 5697 5693 5689 5684 5680 5676 5672 5668 5664 5660 5656 5651 5647 5642 5638 5634 5629 5624 5619 5614 5608 5602 5597 5593 5590 5588 5586 5582 5579 5578 5576 5574 5571 5568 5566 5565 5566 5568 5570 5571 5573 5576 5579 5583 5587 5591 5595 5599 5602 5605 5610 5614
5775 5774 5772 5771 5769 5767 5765 5763 5761 5758 5756 5754 5752 5750 5748 5746 5744 5741 5739 5737 5735 5732 5730 5727 5725 5722 5718 5715 5712 5708 5704 5700 5696 5692 5688 5684 5680 5677 5673 5669 5665 5661 5656 5652 5648 5643 5639 5634 5629 5624 5619 5613 5607 5602 5595 5590 5585 5579 5576 5576 5575 5572 5571 5569 5567 5564 5561 5557 5555 5556 5557 5559 5560 5562 5564 5568 5571 5575 5579 5584 5588 5592 5596 5599 5604
5772 5771 5769 5767 5766 5764 5762 5760 5758 5755 5753 5751 5749 5747 5745 5743 5741 5738 5736 5734 5731 5729 5727 5724 5721 5718 5715 5711 5708 5704 5701 5697 5693 5689 5685 5681 5677 5673 5670 5666 5662 5657 5653 5649 5645 5640 5635 5630 5625 5619 5614 5607 5601 5595 5588 5582 5578 5574 5570 5569 5569 5568 5567 5565 5561 5557 5554 5551 5550 5549 5547 5547 5548 5550 5552 5556 5559 5562 5566 5571 5576 5582 5586 5589 5594
5769 5767 5766 5764 5762 5760 5758 5756 5754 5752 5750 5748 5746 5744 5742 5739 5737 5735 5733 5731 5728 5726 5723 5720 5717 5714 5711 5707 5704 5701 5697 5693 5689 5685 5682 5678 5674 5671 5667 5663 5659 5655 5651 5647 5642 5637 5632 5626 5621 5615 5609 5602 5596 5589 5582 5577 5573 5571 5568 5566 5564 5563 5562 5560 5556 5549 5545 5545 5545 5543 5540 5536 5537 5538 5539 5542 5546 5549 5553 5558 5563 5569 5575 5579 5583
5765 5764 5762 5760 5759 5757 5755 5753 5751 5749 5747 5745 5743 5741 5738 5736 5734 5732 5730 5727 5725 5722 5720 5717 5714 5710 5707 5704 5701 5697 5693 5689 5685 5682 5678 5674 5671 5667 5663 5660 5657 5653 5649 5644 5639 5634 5628 5622 5616 5610 5604 5598 5590 5583 5577 5573 5570 5567 5565 5563 5561 5559 5556 5554 5551 5544 5538 5536 5537 5536 5532 5528 5527 5528 5528 5528 5531 5535 5540 5546 5550 5556 5563 5568 5573
5761 5760 5758 5757 5755 5753 5751 5750 5748 5746 5744 5742 5740 5737 5735 5733 5731 5728 5727 5724 5722 5719 5716 5714 5710 5707 5704 5700 5697 5693 5689 5686 5682 5678 5675 5672 5668 5664 5661 5657 5654 5650 5646 5641 5636 5630 5624 5618 5611 5605 5599 5593 5585 5578 5572 5569 5567 5564 5561 5559 5557 5555 5551 5547 5545 5541 5534 5530 5528 5527 5525 5520 5517 5518 5518 5517 5518 5522 5527 5533 5537 5543 5549 5556 5562
5757 5756 5754 5753 5752 5750 5748 5747 5745 5743 5741 5739 5737 5734 5732 5730 5728 5725 5723 5721 5718 5716 5713 5710 5707 5704 5701 5697 5693 5690 5686 5682 5679 5675 5672 5669 5666 5662 5659 5655 5651 5646 5642 5637 5632 5627 5621 5615 5608 5601 5595 5588 5581 5574 5568 5565 5563 5560 5558 5555 5552 5549 5546 5541 5537 5534 5530 5525 5522 5520 5518 5512 5508 5509 5509 5507 5507 5510 5514 5519 5524 5529 5535 5543 5551
5754 5752 5751 5750 5748 5747 5745 5743 5741 5740 5738 5735 5733 5731 5729 5726 5724 5722 5720 5718 5716 5713 5710 5707 5704 5701 5698 5694 5691 5687 5683 5679 5676 5674 5670 5667 5664 5661 5657 5653 5649 5644 5639 5634 5628 5623 5617 5612 5605 5598 5591 5584 5577 5570 5564 5561 5559 5556 5554 5551 5548 5544 5540 5535 5530 5525 5522 5519 5516 5513 5509 5503 5500 5501 5500 5497 5498 5501 5502 5505 5510 5516 5522 5529 5537
5750 5749 5747 5746 5745 5743 5741 5740 5738 5736 5734 5732 5730 5728 5725 5723 5721 5719 5717 5715 5712 5710 5707 5705 5702 5698 5695 5692 5688 5684 5681 5678 5675 5672 5669 5666 5663 5659 5655 5652 5647 5643 5638 5633 5627 5621 5616 5610 5603 5596 5588 5581 5574 5567 5561 5557 5555 5552 5549 5547 5544 5540 5535 5529 5523 5517 5513 5509 5506 5504 5501 5495 5493 5494 5492 5489 5489 5491 5492 5494 5497 5502 5509 5515 5524
5746 5745 5744 5742 5741 5739 5737 5736 5734 5732 5730 5728 5726 5724 5722 5720 5718 5716 5714 5711 5709 5707 5704 5702 5699 5696 5692 5689 5685 5682 5679 5677 5674 5671 5668 5665 5662 5658 5654 5650 5646 5642 5637 5632 5626 5621 5615 5608 5601 5594 5587 5579 5572 5565 5559 5555 5552 5549 5546 5543 5540 5536 5531 5524 5517 5511 5506 5501 5497 5495 5492 5488 5486 5487 5485 5481 5480 5481 5482 5483 5486 5490 5495 5503 5511
5742 5741 5740 5739 5737 5735 5734 5732 5731 5729 5727 5725 5723 5721 5718 5716 5714 5712 5710 5708 5706 5704 5701 5699 5696 5693 5690 5686 5683 5680 5678 5675 5673 5670 5668 5665 5661 5657 5654 5650 5645 5640 5635 5630 5625 5619 5613 5607 5600 5593 5585 5578 5572 5565 5559 5554 5550 5547 5544 5540 5536 5532 5527 5520 5513 5507 5501 5497 5492 5489 5485 5481 5478 5478 5476 5472 5471 5470 5470 5472 5475 5479 5484 5490 5498
5738 5737 5736 5735 5733 5732 5730 5729 5727 5725 5723 5721 5719 5717 5715 5713 5711 5709 5707 5705 5703 5701 5698 5696 5693 5690 5687 5684 5681 5679 5676 5674 5671 5669 5667 5664 5660 5657 5653 5649 5645 5640 5635 5629 5624 5618 5612 5606 5599 5592 5586 5579 5573 5566 5560 5554 5549 5544 5541 5537 5533 5529 5523 5516 5510 5504 5497 5492 5488 5484 5479 5475 5471 5469 5467 5464 5461 5460 5460 5461 5464 5469 5473 5479 5486
5734 5733 5732 5730 5729 5728 5726 5725 5723 5721 5719 5717 5715 5713 5711 5709 5707 5705 5703 5702 5700 5697 5695 5693 5690 5687 5684 5681 5679 5677 5675 5673 5670 5668 5666 5663 5659 5656 5652 5649 5644 5640 5636 5631 5625 5619 5612 5606 5600 5593 5587 5581 5574 5568 5561 5554 5548 5543 5538 5533 5529 5524 5518 5511 5506 5501 5495 5488 5483 5478 5473 5468 5463 5459 5457 5455 5452 5449 5447 5450 5453 5458 5463 5469 5475
5730 5729 5728 5726 5725 5724 5722 5721 5719 5717 5715 5713 5711 5709 5707 5706 5704 5702 5700 5698 5696 5695 5692 5690 5687 5684 5681 5679 5677 5675 5673 5671 5669 5667 5664 5661 5658 5655 5652 5648 5643 5639 5635 5631 5625 5619 5613 5607 5601 5595 5588 5582 5575 5569 5561 5554 5548 5541 5535 5530 5525 5520 5514 5507 5502 5497 5493 5486 5479 5473 5467 5461 5456 5450 5446 5445 5444 5438 5434 5437 5443 5448 5454 5461 5467